This is the latest recevied weather packets stored in our database for station/object K9ABJ. If no packets are shown the sender has not sent any weather packets the latest 10 day(s).
| Time | Temp. | Humidity | Pressure | Rain* | Wind** | Luminosity | Snow |
|---|---|---|---|---|---|---|---|
| 1788097572 | 21.11° C | 88% | 1019.3 hPa | 0 mm | - | 31 W/m² | - |
| 1788097267 | 21.11° C | 88% | 1019.2 hPa | 0 mm | - | 31 W/m² | - |
| 1788096963 | 21.11° C | 88% | 1019 hPa | 0 mm | - | 31 W/m² | - |
| 1788096658 | 21.11° C | 88% | 1018.9 hPa | 0 mm | - | 22 W/m² | - |
| 1788096354 | 21.11° C | 87% | 1018.9 hPa | 0 mm | - | 26 W/m² | - |
| 1788096049 | 21.11° C | 87% | 1019 hPa | 0 mm | - | 29 W/m² | - |
| 1788095748 | 21.11° C | 87% | 1019 hPa | 0 mm | - | 32 W/m² | - |
| 1788095443 | 21.11° C | 88% | 1018.9 hPa | 0 mm | - | 43 W/m² | - |
| 1788095138 | 21.11° C | 88% | 1018.9 hPa | 0 mm | - | 51 W/m² | - |
| 1788094833 | 21.11° C | 88% | 1019.1 hPa | 0 mm | - | 43 W/m² | - |
| 1788094528 | 21.11° C | 88% | 1019.1 hPa | 0 mm | - | 43 W/m² | - |
| 1788094227 | 21.11° C | 88% | 1018.8 hPa | 0 mm | - | 32 W/m² | - |
| 1788093926 | 20.56° C | 88% | 1018.8 hPa | 0 mm | - | 17 W/m² | - |
| 1788093621 | 20.56° C | 88% | 1018.9 hPa | 0 mm | - | 17 W/m² | - |
| 1788093319 | 20.56° C | 88% | 1018.9 hPa | 0 mm | - | 21 W/m² | - |
| 1788093014 | 20.56° C | 88% | 1018.7 hPa | 0 mm | - | 37 W/m² | - |
| 1788092710 | 20.56° C | 88% | 1018.5 hPa | 0 mm | - | 44 W/m² | - |
| 1788092406 | 20.56° C | 88% | 1018.5 hPa | 0 mm | - | 33 W/m² | - |
| 1788092102 | 20.56° C | 89% | 1018.5 hPa | 0 mm | - | 23 W/m² | - |
| 1788091801 | 20.56° C | 89% | 1018.3 hPa | 0 mm | - | 12 W/m² | - |
| 1788091496 | 20° C | 89% | 1018.1 hPa | 0 mm | - | 11 W/m² | - |
| 1788091193 | 20.56° C | 89% | 1018.6 hPa | 0 mm | - | 10 W/m² | - |
| 1788090888 | 20° C | 89% | 1018.1 hPa | 0 mm | - | 6 W/m² | - |
| 1788090584 | 20° C | 90% | 1018.1 hPa | 0 mm | - | 5 W/m² | - |
| 1788090281 | 20° C | 91% | 1018.1 hPa | 0 mm | - | 5 W/m² | - |
* Rain latest hour (hover to see other rain measurements)
** Current wind speed in m/s (hover to see current wind gust speed)